Location: *
(58.4167°N, 22.5000°E)
Time: 01:02:37
(UTC+00:00)

Spot 2 Rocket - Pass Details

Date: 22 September 2019
Orbit: 758 x 772 km, 98.6° (Epoch: 19 October)

Event Time Altitude Azimuth Distance (km) Brightness Sun altitude
Exits shadow 19:34:39 28° 199° (SSW) 1,398 4.6 -22.7°
Maximum altitude 19:37:02 50° 260° (W) 968 4.2 -22.9°
Drops below altitude 10° 19:41:57 10° 336° (NNW) 2,303 6.9 -23.4°
Sets 19:44:20 0° 341° (NNW) 3,233 7.8 -23.6°
